Weather History for KMWC - April, 2013

Change the Weather History Date:

Sunday, April 7, 2013

  Actual Average Record
Temperature  
Mean Temperature 43 °F -  
Max Temperature 51 °F 55 °F 85 °F (1991)
Min Temperature 35 °F 34 °F 12 °F (1982)
Degree Days  
Heating Degree Days 22    
Moisture  
Dew Point 34 °F    
Average Humidity 73    
Maximum Humidity 82    
Minimum Humidity 50    
Precipitation  
Precipitation 0.01 in - - ()
Sea Level Pressure  
Sea Level Pressure 29.81 in    
Wind  
Wind Speed 14 mph (West)    
Max Wind Speed 26 mph    
Max Gust Speed 34 mph    
Visibility 10 miles    
Events      
Averages and records for this station are not official NWS values.
T = Trace of Precipitation, MM = Missing Value Source: NWS Daily Summary

Daily Weather History Graph

Daily Weather History Graph

Search for Another Location

Airport or City:

Trip Planner

Search our weather history database for the weather conditions in past years. The results will help you decide how hot, cold, wet, or windy it might be!

Date:

Astronomy

Apr. 07, 2013 Rise Set
Actual Time 6:23 AM CDT 7:25 PM CDT
Civil Twilight 5:54 AM CDT 7:54 PM CDT
Nautical Twilight 5:19 AM CDT 8:29 PM CDT
Astronomical Twilight 4:43 AM CDT 9:06 PM CDT
Moon 4:44 AM CDT (4/7) 4:54 PM CDT (4/7)
Length of Visible Light 14h 00m
Length of Day
13h 02m
Waning Crescent, 8% of the Moon is Illuminated
Apr 7
Waning Crescent
Apr 10
New
Apr 18
First Quarter
Apr 25
Full
May 2
Last Quarter

Hourly Weather History & Observations

Time (CDT) Temp. Windchill Dew Point Humidity Pressure Visibility Wind Dir Wind Speed Gust Speed Precip Events Conditions
12:15 AM 51.8 °F - 46.4 °F 82% 29.54 in 10.0 mi SW 11.5 mph 19.6 mph N/A   Overcast
12:35 AM 51.8 °F - 46.4 °F 82% 29.55 in 10.0 mi SW 11.5 mph 16.1 mph 0.01 in   Overcast
12:55 AM 51.8 °F - 46.4 °F 82% 29.55 in 10.0 mi WSW 13.8 mph 18.4 mph 0.01 in   Overcast
1:15 AM 51.8 °F - 46.4 °F 82% 29.56 in 10.0 mi West 16.1 mph 25.3 mph N/A   Overcast
1:35 AM 51.8 °F - 44.6 °F 76% 29.58 in 10.0 mi West 18.4 mph 25.3 mph N/A   Overcast
1:55 AM 50.0 °F - 42.8 °F 76% 29.58 in 10.0 mi West 18.4 mph 25.3 mph N/A   Overcast
2:15 AM 50.0 °F - 42.8 °F 76% 29.59 in 10.0 mi West 20.7 mph 29.9 mph N/A   Overcast
2:35 AM 46.4 °F 37.7 °F 39.2 °F 76% 29.61 in 10.0 mi West 26.5 mph 34.5 mph N/A   Overcast
2:55 AM 44.6 °F 36.1 °F 35.6 °F 71% 29.62 in 10.0 mi WNW 21.9 mph 31.1 mph N/A   Overcast
3:15 AM 42.8 °F 34.0 °F 35.6 °F 76% 29.63 in 10.0 mi WNW 20.7 mph 27.6 mph N/A   Overcast
3:35 AM 42.8 °F 34.8 °F 35.6 °F 76% 29.64 in 10.0 mi West 17.3 mph 28.8 mph N/A   Overcast
3:55 AM 41.0 °F 31.9 °F 33.8 °F 76% 29.65 in 10.0 mi West 19.6 mph 32.2 mph N/A   Overcast
4:15 AM 41.0 °F 30.7 °F 33.8 °F 76% 29.66 in 10.0 mi West 25.3 mph 33.4 mph N/A   Overcast
4:35 AM 41.0 °F 31.1 °F 33.8 °F 76% 29.68 in 10.0 mi WNW 23.0 mph 34.5 mph N/A   Overcast
4:55 AM 41.0 °F 33.5 °F 33.8 °F 76% 29.69 in 10.0 mi WNW 13.8 mph 24.2 mph N/A   Overcast
5:15 AM 39.2 °F 30.5 °F 33.8 °F 81% 29.71 in 10.0 mi WNW 16.1 mph 24.2 mph N/A   Overcast
5:35 AM 39.2 °F 31.2 °F 32.0 °F 75% 29.72 in 10.0 mi West 13.8 mph 24.2 mph N/A   Overcast
5:55 AM 39.2 °F 31.2 °F 32.0 °F 75% 29.74 in 10.0 mi WNW 13.8 mph 20.7 mph N/A   Overcast
6:15 AM 37.4 °F 29.3 °F 32.0 °F 81% 29.76 in 10.0 mi WNW 12.7 mph 21.9 mph N/A   Overcast
6:35 AM 37.4 °F 28.5 °F 32.0 °F 81% 29.77 in 10.0 mi WNW 15.0 mph 19.6 mph N/A   Overcast
6:45 AM 39.2 °F 32.5 °F 30.2 °F 70% 29.78 in 10.0 mi WNW 10.4 mph - N/A   Overcast
6:55 AM 37.4 °F 28.2 °F 32.0 °F 81% 29.79 in 10.0 mi WNW 16.1 mph 21.9 mph N/A   Overcast
7:45 AM 37.4 °F 29.8 °F 30.2 °F 75% 29.84 in 10.0 mi WNW 11.5 mph 17.3 mph N/A   Overcast
8:45 AM 37.4 °F 28.5 °F 30.2 °F 75% 29.87 in 10.0 mi WNW 15.0 mph 24.2 mph N/A   Overcast
9:45 AM 39.2 °F 31.2 °F 30.2 °F 70% 29.90 in 10.0 mi NW 13.8 mph 18.4 mph N/A   Overcast
10:45 AM 39.2 °F 31.2 °F 30.2 °F 70% 29.92 in 10.0 mi WNW 13.8 mph 17.3 mph N/A   Overcast
11:45 AM 41.0 °F 33.5 °F 30.2 °F 65% 29.95 in 10.0 mi WNW 13.8 mph - N/A   Overcast
12:45 PM 44.6 °F 38.8 °F 32.0 °F 61% 29.95 in 10.0 mi WNW 11.5 mph - N/A   Mostly Cloudy
1:45 PM 46.4 °F 41.1 °F 32.0 °F 57% 29.95 in 10.0 mi WNW 11.5 mph - N/A   Mostly Cloudy
2:45 PM 48.2 °F - 32.0 °F 54% 29.96 in 10.0 mi NNW 9.2 mph - N/A   Scattered Clouds
3:45 PM 48.2 °F - 32.0 °F 54% 29.95 in 10.0 mi WSW 6.9 mph - N/A   Scattered Clouds
4:45 PM 50.0 °F - 32.0 °F 50% 29.95 in 10.0 mi ESE 10.4 mph - N/A   Scattered Clouds
5:45 PM 44.6 °F 38.4 °F 30.2 °F 57% 29.97 in 10.0 mi East 12.7 mph - N/A   Clear
6:45 PM 42.8 °F 37.5 °F 30.2 °F 61% 29.98 in 10.0 mi ESE 9.2 mph - N/A   Clear
7:45 PM 39.2 °F 35.0 °F 30.2 °F 70% 29.98 in 10.0 mi SE 5.8 mph - N/A   Clear
8:45 PM 39.2 °F 34.2 °F 30.2 °F 70% 29.99 in 10.0 mi ESE 6.9 mph - N/A   Clear
9:15 PM 37.4 °F 31.4 °F 30.2 °F 75% 29.99 in 10.0 mi ESE 8.1 mph - N/A   Clear
9:35 PM 37.4 °F 34.9 °F 30.2 °F 75% 29.99 in 10.0 mi ESE 3.5 mph - N/A   Clear
9:55 PM 37.4 °F 32.1 °F 30.2 °F 75% 29.99 in 10.0 mi SE 6.9 mph - N/A   Clear
10:15 PM 37.4 °F 32.1 °F 30.2 °F 75% 29.99 in 10.0 mi SE 6.9 mph - N/A   Clear
10:35 PM 37.4 °F 33.8 °F 30.2 °F 75% 29.98 in 10.0 mi ESE 4.6 mph - N/A   Clear
10:55 PM 37.4 °F 32.8 °F 30.2 °F 75% 29.97 in 10.0 mi ESE 5.8 mph - N/A   Clear
11:15 PM 37.4 °F 33.8 °F 30.2 °F 75% 29.97 in 10.0 mi East 4.6 mph - N/A   Clear
11:35 PM 35.6 °F 30.7 °F 30.2 °F 81% 29.96 in 10.0 mi ESE 5.8 mph - N/A   Clear
11:55 PM 35.6 °F 32.8 °F 30.2 °F 81% 29.95 in 10.0 mi ESE 3.5 mph - N/A   Clear